Temp
4 4 5 5 5 6 6 5 1 4 6 3 1 -1 2 4 5 5 5 5 4 4 4 4 5 6 8 7 8 7 8 7 6 9 10 10 10 8 6 7 6 3 3 6
3 4 4 4 5 5 5 3 3 4 5 -2 -3 2 3 4 3 4 4 3 4 4 3 3 5 5 8 7 7 7 7 6 6 9 9 9 9 8 5 4 5 6 7 8
3 3 4 4 4 4 4 2 -3 3 3 2 1 1 2 2 4 4 4 4 4 3 3 5 4 4 7 7 7 8 7 8 7 8 10 8 8 8 7 7 6 5 6 8
2 3 3 3 3 3 3 1 -2 -1 -3 -1 0 1 2 1 1 3 4 3 2 2 3 3 4 5 5 6 7 7 7 7 8 8 9 9 10 10 8 6 7 7 8 6
2 2 3 2 2 2 2 -0 -1 -1 -1 -0 0 0 0 1 1 2 3 2 1 1 1 3 2 3 3 3 6 6 7 7 7 7 9 9 9 10 9 7 7 7 7 7
1 2 2 2 1 2 0 -1 -1 -1 -2 -1 -0 -0 0 0 1 2 2 2 0 1 2 2 1 1 1 2 3 4 4 6 7 8 9 9 8 8 9 7 7 8 7 9
1 1 1 1 -0 -0 -0 -1 -1 -1 -3 -1 -1 -1 -1 -0 -0 -0 1 1 1 2 2 2 3 1 1 1 2 2 4 5 6 7 8 7 10 11 10 9 9 8 9 9
0 0 -0 -0 -1 -2 -2 -2 -1 -2 -5 -2 -2 -1 -1 -1 -0 -1 -0 1 1 2 1 2 3 4 6 5 3 3 3 5 6 6 7 9 12 11 10 10 11 9 9 9
0 -0 -1 -1 -2 -3 -3 -3 -3 -2 -3 -3 -2 -2 -2 -2 -1 -0 0 1 1 1 -0 2 4 5 6 7 7 5 4 4 5 5 8 10 10 11 12 12 8 12 10 8
-0 -1 -1 -1 -2 -3 -3 -3 -3 -4 -3 -2 -2 -2 -2 -1 -1 -3 -2 -0 0 1 -1 1 2 3 3 5 6 7 5 5 6 5 4 7 10 11 13 12 9 11 11 9
-1 -1 -1 -1 -2 -3 -3 -3 -4 -4 -4 -3 -3 -2 -2 -2 -2 -5 -1 -2 -1 -2 -1 -0 0 1 2 1 3 5 6 6 6 5 5 7 12 12 13 10 13 12 11 10
-1 -1 -1 -1 -2 -3 -4 -4 -4 -4 -4 -3 -3 -3 -2 -2 -2 -2 -2 -2 -1 0 -3 -2 -1 1 1 2 2 6 7 6 6 6 7 10 12 12 13 13 13 13 13 12
-1 -1 -2 -1 -2 -2 -4 -4 -4 -4 -4 -3 -3 0 -1 -1 -1 -1 -2 -2 -1 -0 0 -0 -0 -0 1 1 3 3 5 6 7 8 11 11 13 14 13 13 13 13 13 13
-1 -1 -1 -2 -2 -3 -4 -4 -4 -4 -4 -4 -2 -1 0 -0 -0 -0 -1 -0 -1 -1 -1 -1 -0 0 0 1 2 1 3 5 7 8 11 14 14 14 13 14 13 13 13 13
-2 -2 -2 -2 -2 -3 -4 -3 -3 -4 -4 -4 -3 -1 1 1 0 -0 -0 -1 -2 -2 -1 -1 1 0 1 1 1 2 5 5 6 9 10 10 12 13 13 14 13 12 13 12
-2 -2 -2 -2 -2 -3 -4 -4 -3 -3 -4 -4 -4 -1 2 1 2 1 1 -0 -1 -2 -1 -0 0 1 0 2 3 5 6 7 8 8 9 10 12 12 13 14 13 13 13 14
-2 -2 -2 -2 -3 -3 -3 -3 -3 -3 -4 -4 -3 -2 1 2 2 1 -0 -0 -2 -2 -1 -1 1 1 0 1 2 5 6 7 7 9 9 12 13 13 13 13 13 13 13 12
-3 -3 -3 -3 -3 -3 -4 -2 -3 -3 -4 -3 -3 -2 -0 1 2 1 0 -0 -1 -1 0 0 0 1 0 1 3 4 5 6 7 9 10 11 12 13 13 13 13 13 13 13
-3 -3 -2 -3 -4 -4 -3 -3 -3 -4 -3 -3 -2 -3 -3 1 1 1 1 0 0 -0 0 0 1 1 1 3 4 5 6 7 9 10 11 12 13 13 14 14 13 13 13 12
-3 -3 -3 -2 -3 -2 -2 -2 -3 -3 -3 -3 -3 -1 -2 1 1 -0 -1 -0 0 1 1 1 1 1 4 4 6 7 8 8 8 8 10 12 12 12 12 13 14 14 14 13
-3 -3 -2 -2 -3 -3 -2 -2 -2 -3 -2 -3 -2 -1 -1 1 -0 -1 1 -2 0 2 2 1 2 3 4 8 8 8 9 7 8 9 10 10 11 12 12 13 13 14 13 13
-3 -2 -3 -3 -3 -2 -2 -2 -2 -2 -1 -1 -2 -1 -1 1 2 1 1 -0 0 2 -0 2 3 4 7 6 7 9 10 10 10 11 11 11 12 12 12 13 14 14 14 13
-3 -3 -3 -4 -3 -2 -2 -5 -1 -2 -1 0 -0 0 1 1 2 1 -0 1 1 2 2 3 2 5 5 6 8 9 10 11 10 11 11 12 12 12 12 13 14 14 14 14
-3 -5 -5 -4 -4 -1 -2 -1 -1 1 1 1 1 1 1 1 -0 -0 -0 1 1 3 3 4 2 5 6 7 8 9 9 10 10 11 11 11 12 12 12 13 13 13 13 14
-5 -4 -3 -3 -2 -1 -0 0 0 1 2 2 1 2 1 -0 -1 -0 -0 1 2 3 3 2 4 6 7 8 8 8 9 9 10 10 11 11 12 12 12 12 12 13 13 13
-4 -5 -3 -2 -2 -2 -0 0 0 1 1 2 2 1 -1 1 0 1 1 1 2 3 2 3 4 5 6 7 8 9 9 9 9 9 10 10 11 11 12 12 12 13 13 13
-5 -5 -4 -3 -2 -2 -2 0 1 1 1 0 1 0 2 0 0 0 -0 1 1 3 5 5 4 5 5 7 7 8 9 9 9 9 9 10 10 10 10 11 11 11 12 12
Height
1558 1556 1554 1552 1549 1547 1544 1544 1547 1546 1541 1542 1552 1564 1563 1562 1561 1559 1558 1558 1559 1559 1556 1551 1548 1539 1534 1532 1530 1526 1518 1520 1521 1509 1507 1505 1505 1511 1518 1524 1536 1545 1547 1527
1559 1557 1555 1554 1551 1548 1547 1549 1553 1551 1546 1561 1566 1563 1563 1563 1562 1562 1561 1561 1561 1560 1559 1556 1547 1542 1534 1534 1532 1528 1522 1523 1525 1512 1509 1507 1508 1509 1519 1526 1527 1526 1525 1512
1560 1558 1557 1556 1554 1552 1551 1554 1558 1557 1556 1561 1564 1567 1567 1566 1564 1563 1563 1562 1561 1561 1558 1554 1550 1545 1535 1534 1530 1526 1521 1516 1517 1515 1504 1509 1511 1507 1512 1515 1524 1525 1517 1499
1561 1560 1559 1558 1556 1555 1555 1558 1565 1567 1570 1568 1568 1568 1570 1569 1568 1565 1564 1563 1565 1567 1561 1555 1547 1542 1538 1534 1527 1524 1523 1517 1512 1507 1502 1502 1500 1500 1505 1513 1505 1510 1500 1502
1562 1561 1561 1559 1558 1558 1558 1563 1567 1569 1570 1570 1569 1570 1573 1572 1571 1569 1566 1567 1565 1564 1563 1558 1552 1548 1544 1542 1529 1526 1525 1515 1511 1506 1497 1496 1496 1493 1494 1500 1502 1503 1498 1493
1563 1563 1562 1561 1561 1560 1561 1566 1568 1569 1573 1572 1572 1574 1574 1574 1572 1568 1567 1567 1566 1561 1557 1554 1547 1542 1537 1537 1535 1532 1533 1519 1511 1502 1495 1492 1497 1489 1485 1490 1491 1489 1496 1479
1565 1565 1564 1563 1563 1564 1565 1567 1569 1570 1575 1573 1573 1574 1574 1573 1574 1572 1565 1565 1564 1559 1552 1541 1527 1521 1520 1522 1521 1530 1525 1522 1515 1507 1498 1509 1482 1472 1474 1479 1478 1478 1474 1475
1566 1566 1565 1565 1565 1566 1567 1569 1571 1572 1575 1574 1573 1573 1573 1572 1570 1569 1567 1563 1563 1557 1549 1540 1525 1513 1508 1504 1509 1514 1520 1524 1518 1511 1507 1492 1473 1473 1476 1477 1472 1468 1469 1473
1566 1567 1567 1567 1566 1567 1569 1570 1571 1573 1574 1574 1574 1574 1574 1573 1569 1568 1564 1562 1559 1555 1551 1545 1531 1517 1509 1501 1499 1504 1514 1519 1517 1515 1506 1496 1481 1472 1470 1471 1485 1466 1467 1471
1567 1568 1568 1568 1568 1568 1570 1570 1572 1574 1574 1573 1573 1573 1573 1572 1571 1570 1566 1562 1558 1555 1555 1548 1542 1532 1529 1510 1502 1499 1506 1510 1511 1517 1521 1496 1476 1470 1469 1480 1487 1467 1465 1466
1567 1568 1569 1569 1568 1567 1569 1571 1571 1574 1573 1571 1570 1570 1570 1570 1570 1572 1566 1566 1561 1558 1557 1555 1554 1547 1539 1533 1519 1500 1498 1504 1507 1514 1515 1506 1474 1471 1473 1476 1469 1467 1465 1466
1567 1568 1568 1568 1568 1567 1568 1570 1571 1572 1573 1569 1567 1565 1565 1565 1566 1568 1567 1566 1565 1563 1562 1560 1556 1552 1545 1536 1528 1502 1499 1498 1498 1496 1491 1475 1473 1472 1471 1469 1468 1467 1467 1468
1567 1568 1569 1568 1568 1568 1568 1569 1571 1571 1571 1564 1558 1556 1559 1558 1558 1561 1565 1565 1565 1563 1562 1561 1557 1554 1547 1539 1526 1518 1505 1494 1491 1485 1477 1472 1470 1468 1469 1468 1467 1466 1465 1466
1566 1567 1568 1568 1568 1568 1568 1568 1569 1571 1572 1568 1556 1553 1553 1553 1553 1554 1556 1557 1561 1561 1561 1560 1556 1552 1545 1537 1532 1527 1516 1502 1488 1482 1472 1468 1468 1467 1468 1467 1465 1463 1461 1463
1565 1566 1567 1568 1568 1567 1568 1567 1567 1569 1572 1567 1556 1549 1546 1546 1545 1547 1551 1554 1557 1558 1558 1555 1550 1545 1542 1533 1526 1511 1501 1495 1492 1485 1478 1477 1470 1468 1467 1467 1466 1464 1463 1465
1564 1566 1566 1567 1567 1566 1567 1566 1566 1564 1565 1567 1560 1549 1543 1543 1543 1543 1545 1548 1552 1555 1554 1549 1544 1542 1543 1532 1518 1499 1494 1493 1491 1488 1480 1473 1470 1469 1468 1468 1467 1466 1467 1470
1562 1564 1566 1566 1565 1566 1567 1569 1568 1565 1566 1567 1561 1551 1544 1542 1541 1540 1542 1544 1545 1548 1547 1541 1539 1538 1539 1529 1516 1490 1486 1488 1486 1482 1481 1472 1469 1470 1470 1470 1470 1469 1471 1474
1561 1563 1564 1565 1563 1563 1561 1563 1564 1565 1567 1566 1562 1552 1545 1541 1540 1540 1541 1541 1542 1540 1538 1534 1532 1533 1532 1516 1484 1484 1484 1485 1481 1479 1480 1474 1471 1471 1472 1473 1473 1474 1475 1478
1559 1561 1562 1562 1560 1560 1560 1559 1557 1561 1569 1563 1557 1554 1551 1541 1539 1539 1538 1537 1534 1533 1529 1528 1531 1525 1516 1483 1482 1478 1480 1482 1479 1477 1476 1473 1473 1473 1474 1475 1476 1478 1479 1481
1556 1559 1562 1558 1557 1558 1558 1557 1559 1560 1561 1559 1550 1546 1545 1543 1539 1537 1536 1534 1531 1526 1523 1523 1521 1510 1492 1484 1477 1477 1473 1476 1477 1476 1476 1474 1474 1476 1478 1478 1478 1479 1481 1483
1555 1556 1557 1557 1556 1557 1555 1553 1554 1555 1553 1547 1539 1538 1537 1541 1540 1538 1535 1532 1527 1521 1516 1519 1512 1500 1483 1477 1473 1467 1465 1469 1470 1473 1474 1475 1476 1476 1477 1478 1479 1480 1482 1484
1552 1554 1554 1554 1554 1553 1553 1549 1548 1547 1542 1536 1533 1532 1534 1536 1536 1534 1532 1531 1527 1517 1518 1513 1502 1489 1480 1472 1465 1463 1460 1461 1463 1466 1469 1472 1473 1474 1475 1476 1478 1480 1482 1484
1550 1553 1552 1552 1551 1548 1544 1549 1539 1539 1531 1528 1528 1530 1531 1532 1533 1532 1531 1529 1521 1514 1511 1500 1494 1487 1479 1471 1464 1461 1459 1459 1461 1463 1465 1467 1469 1471 1473 1475 1476 1478 1480 1482
1546 1547 1550 1547 1544 1535 1528 1526 1526 1527 1527 1526 1528 1528 1529 1530 1531 1530 1530 1521 1518 1510 1500 1490 1494 1486 1478 1472 1468 1463 1462 1461 1461 1462 1463 1463 1465 1467 1470 1472 1474 1475 1477 1479
1541 1542 1540 1534 1527 1524 1523 1523 1525 1527 1527 1527 1528 1528 1528 1528 1530 1528 1526 1520 1511 1503 1495 1497 1493 1487 1483 1478 1474 1470 1467 1466 1463 1463 1462 1462 1462 1463 1465 1468 1470 1472 1474 1476
1535 1534 1530 1526 1526 1521 1520 1519 1521 1524 1524 1526 1525 1524 1525 1522 1522 1524 1518 1515 1504 1495 1494 1495 1492 1490 1485 1482 1479 1477 1474 1470 1467 1464 1462 1462 1461 1461 1462 1462 1464 1467 1469 1471
1526 1522 1521 1521 1521 1519 1517 1517 1519 1520 1521 1522 1521 1522 1518 1516 1516 1515 1511 1507 1498 1496 1496 1492 1490 1491 1489 1484 1483 1481 1478 1475 1472 1469 1466 1464 1462 1461 1460 1459 1460 1461 1464 1466
Wind_Speed
9 11 13 14 14 13 10 6 4 16 12 9 6 3 2 4 6 11 7 3 4 3 4 4 3 4 5 20 16 8 3 1 1 1 0 1 1 4 5 3 3 2 2 6
9 11 13 14 15 15 10 5 5 17 9 4 3 3 4 4 7 5 5 3 2 3 3 5 4 6 10 23 15 6 5 2 2 4 3 3 2 3 4 4 3 6 3 5
8 10 11 12 12 13 10 4 3 8 14 10 5 3 3 5 6 1 7 3 5 6 4 3 6 7 7 24 16 19 3 3 4 4 2 3 3 5 6 5 2 4 7 9
7 10 10 11 10 11 7 6 4 3 2 8 5 2 2 3 6 5 8 4 5 6 5 6 3 6 10 15 8 9 6 4 4 8 10 6 6 5 7 8 8 6 4 9
7 8 9 10 10 10 12 5 4 4 3 3 3 4 4 4 5 3 2 3 11 6 4 6 17 11 7 6 8 6 8 4 2 6 11 9 6 9 11 10 3 11 11 17
5 7 9 9 9 9 8 7 6 2 3 2 1 1 3 3 6 4 3 7 5 5 5 20 34 37 36 27 12 6 5 4 3 4 5 3 4 9 9 5 5 6 8 11
5 6 9 9 8 9 9 7 5 3 0 1 1 2 5 2 4 4 15 16 3 11 34 37 30 31 31 27 27 24 7 5 3 3 5 2 7 3 5 9 6 12 5 5
4 6 8 9 6 6 5 5 3 3 0 1 5 2 2 8 10 5 9 7 17 26 18 5 8 4 3 10 12 20 25 6 3 0 3 6 5 2 3 5 6 7 12 5
4 6 6 8 6 4 3 3 3 1 1 2 4 2 6 3 4 6 5 18 17 10 3 3 4 4 4 4 4 17 15 13 3 1 1 2 5 5 5 4 4 4 7 8
3 4 6 6 7 3 2 2 2 2 3 4 7 5 3 4 2 3 7 11 9 8 3 2 3 4 9 4 5 3 5 5 4 1 2 7 6 9 6 2 5 8 7 18
3 3 4 7 7 4 2 1 1 4 4 12 17 18 16 9 7 2 11 11 3 5 5 2 2 3 4 5 9 5 3 4 3 2 2 5 2 6 3 5 6 6 3 15
3 2 4 7 7 3 4 2 2 3 8 12 19 24 27 24 13 12 5 4 11 5 2 3 2 2 3 6 5 7 1 2 3 7 6 5 8 10 8 5 7 5 3 9
3 1 4 7 7 2 4 4 5 6 10 19 12 4 10 9 13 19 18 19 10 6 7 5 2 4 2 3 5 5 9 10 3 1 3 6 19 19 6 4 8 9 8 7
4 1 5 7 6 2 7 7 6 5 6 6 6 9 11 12 9 15 19 23 13 12 11 6 3 3 4 3 9 13 11 12 5 4 8 12 14 9 6 4 10 9 4 13
5 1 5 8 6 3 8 10 11 13 8 4 16 30 4 9 7 25 24 19 19 15 5 6 3 5 5 5 6 5 7 5 1 2 17 10 16 18 6 4 8 4 7 19
5 2 4 7 6 6 6 3 6 5 15 5 4 12 10 9 6 9 16 26 24 17 6 6 6 5 4 3 4 14 24 19 19 9 33 27 23 13 4 2 5 5 9 18
6 4 6 8 6 9 6 1 4 10 8 3 6 7 5 14 8 6 14 16 14 14 8 8 9 7 6 3 8 24 32 21 27 25 26 10 5 3 5 2 5 8 10 14
9 8 9 11 9 12 18 15 18 9 7 4 4 5 7 3 3 2 6 7 14 9 7 5 5 4 7 5 24 27 31 26 25 20 16 12 4 8 8 6 6 10 11 13
11 10 11 14 11 5 5 8 9 17 11 4 5 2 3 3 3 2 3 4 4 7 6 6 6 3 6 15 20 28 23 12 17 18 15 6 5 7 8 8 8 8 10 11
13 9 6 5 3 5 9 5 9 10 9 9 6 8 4 3 3 3 3 4 2 2 4 6 3 5 33 37 43 38 37 30 23 20 13 11 11 7 2 4 4 4 6 11
14 5 6 5 6 5 4 5 7 7 5 8 8 19 12 7 5 4 4 2 3 3 3 4 3 3 8 19 21 20 21 27 32 29 25 15 10 7 4 2 2 5 7 7
11 4 6 7 3 5 5 3 4 5 4 6 6 7 13 7 8 6 4 2 1 4 1 2 3 4 23 29 17 12 8 10 14 18 19 16 12 6 5 4 5 6 6 10
14 5 3 3 4 5 5 6 4 4 6 7 7 4 6 6 8 5 1 3 5 5 3 3 3 16 24 23 22 16 11 4 5 7 12 17 16 12 9 7 7 9 9 10
7 8 4 5 4 6 6 5 3 6 5 4 10 4 4 4 3 2 3 4 3 3 3 0 5 21 24 24 25 24 23 18 10 3 4 8 12 15 16 12 9 10 12 13
7 7 5 7 13 11 6 9 9 7 5 5 6 2 5 3 2 3 3 3 4 3 1 1 21 29 24 27 29 27 23 21 19 15 9 3 5 11 15 20 17 13 11 13
6 7 5 9 8 15 17 17 17 15 11 10 5 3 1 4 3 4 6 3 4 3 4 12 22 26 25 19 24 24 23 23 20 18 16 11 6 4 9 15 22 25 20 17
7 8 16 17 11 13 13 13 10 3 8 4 5 5 8 2 2 3 4 4 4 4 16 14 9 9 19 15 16 19 20 21 22 21 19 17 14 11 7 5 12 15 17 18
Wind_Direction
7 9 8 7 8 9 10 40 46 12 16 48 46 54 8 344 339 10 31 61 7 338 309 285 287 288 319 14 347 326 319 289 299 270 63 270 90 176 146 124 224 108 106 275
9 11 12 11 11 18 25 56 30 28 27 79 14 24 8 45 14 3 23 21 54 305 275 314 274 320 318 356 345 350 332 316 1 348 353 18 193 168 93 86 101 192 171 259
12 14 17 16 19 25 33 51 38 33 54 64 93 34 32 6 360 260 355 291 51 335 309 255 292 301 309 332 314 311 275 251 213 216 153 150 230 185 168 140 154 162 226 278
12 18 20 19 26 29 40 49 67 39 12 20 33 41 32 2 5 358 1 14 32 341 303 300 244 325 321 324 310 337 1 241 213 251 260 253 222 236 218 200 193 182 247 221
19 20 22 26 32 34 51 71 54 51 58 21 24 16 1 36 338 315 356 29 321 300 257 267 293 302 297 259 305 336 2 299 271 268 253 249 270 250 231 212 193 251 264 277
31 25 25 30 33 39 69 84 74 71 15 21 59 54 349 46 3 288 290 324 312 298 273 308 287 275 266 251 268 301 310 279 302 271 320 298 328 226 210 172 197 178 197 234
43 35 27 29 40 50 81 85 66 57 61 21 30 340 328 315 319 261 291 309 283 295 313 308 293 264 251 247 242 227 247 266 290 284 0 14 243 216 198 197 226 210 239 188
61 48 34 25 40 64 74 84 76 55 351 345 304 344 334 318 317 289 290 311 321 321 317 295 310 323 242 230 223 211 214 211 280 285 246 286 316 31 146 173 291 215 229 176
83 56 40 31 22 47 58 65 78 61 36 275 258 316 302 293 322 327 275 319 333 335 292 300 291 326 320 310 322 196 192 209 255 283 356 270 249 297 358 137 313 332 200 166
96 64 40 28 11 338 37 65 115 88 275 293 255 241 278 307 0 275 306 338 329 354 346 314 336 315 330 322 313 172 162 183 192 322 314 290 265 290 332 57 246 321 301 184
109 56 26 14 1 317 265 197 234 247 263 281 270 252 260 254 259 167 305 337 348 340 12 2 335 310 321 302 317 274 161 143 167 177 256 286 279 341 30 236 308 320 34 176
117 45 6 1 0 318 261 328 253 267 263 266 277 276 270 263 274 257 248 273 341 291 10 5 324 295 275 340 299 327 312 211 208 179 213 252 295 284 295 291 298 311 303 185
154 39 355 355 1 305 247 263 290 316 299 306 280 283 303 264 249 254 243 265 269 252 301 304 289 270 288 298 284 302 318 316 264 140 303 252 312 324 273 284 303 310 266 208
193 322 357 355 352 282 248 256 272 285 291 288 290 317 298 295 260 244 241 252 235 254 281 267 250 257 227 268 279 276 251 320 304 278 277 304 308 318 255 296 328 337 160 179
195 289 356 354 345 288 259 278 281 268 249 279 295 313 306 318 299 244 243 246 243 254 251 239 252 254 272 253 258 241 222 234 350 282 322 312 296 328 257 294 339 15 142 153
214 279 342 349 334 283 302 325 19 290 224 263 300 312 327 10 236 234 234 236 235 231 232 241 238 235 232 277 287 265 266 278 301 298 316 298 284 312 174 341 11 82 139 156
231 264 316 332 311 271 247 286 122 60 148 259 295 287 293 319 314 237 226 225 215 214 223 228 243 247 240 245 253 260 273 274 290 304 318 311 284 296 167 101 86 103 133 161
239 269 296 307 294 275 275 284 234 245 300 278 273 274 307 301 291 263 207 203 207 231 226 232 219 215 217 262 245 253 268 285 292 303 315 313 297 147 143 126 115 124 136 151
233 256 279 290 281 261 333 345 194 216 219 262 235 215 264 293 274 230 206 238 219 222 225 206 201 196 233 240 268 270 279 264 287 312 336 27 123 130 142 137 142 148 154 160
223 255 265 245 201 312 312 192 167 179 203 230 254 209 251 304 318 294 273 205 259 241 220 183 232 255 257 265 264 267 271 274 279 293 319 8 51 47 160 181 177 144 156 180
207 226 222 240 265 275 245 207 177 180 228 225 241 223 228 241 220 240 240 268 256 260 185 194 229 254 255 313 306 286 269 260 260 263 266 274 294 327 346 294 230 200 206 193
204 202 255 278 206 215 240 196 189 209 236 210 211 235 207 228 225 224 215 253 320 258 116 240 247 261 321 332 338 353 310 247 241 241 244 242 252 262 286 247 236 241 235 224
210 192 226 211 218 240 209 201 201 220 214 215 195 190 176 194 202 234 185 236 241 311 225 217 238 301 339 7 27 39 44 125 194 218 225 227 233 241 253 250 235 231 236 239
174 162 223 215 234 227 209 198 190 218 230 230 189 170 177 181 174 208 241 240 302 254 261 311 297 339 10 28 35 45 48 52 59 76 211 226 231 234 235 226 223 239 244 236
166 179 223 223 239 262 253 256 257 260 273 206 193 218 195 163 179 223 288 269 247 236 281 227 341 357 12 29 32 34 37 41 43 43 46 26 241 230 232 226 224 227 246 244
194 222 238 247 273 275 279 285 279 276 263 215 222 192 216 215 186 185 223 255 247 295 85 315 338 341 336 350 22 28 29 37 37 34 29 20 9 316 253 239 229 227 233 238
212 225 223 238 258 267 270 292 313 319 194 204 191 195 218 112 204 219 190 217 241 199 294 325 303 323 330 343 357 13 25 29 32 32 30 24 11 353 316 283 231 230 227 235